Regional Weather Roundup
Issued by NWS Sterling, VA

Home | Current Version | Previous Version | Graphics & Text | Print | Product List | Glossary On
Versions: 1 2 3 4 5 6 7 8 9 10 11 12 13 14 15 16 17 18 19 20 21 22 23 24 25 26 27 28 29 30 31 32 33 34 35 36 37 38 39 40 41 42 43 44 45 46 47 48 49 50
000
ASUS41 KLWX 042110
RWRLWX

REGIONAL WEATHER ROUNDUP
NATIONAL WEATHER SERVICE BALTIMORE MD/WASHINGTON DC
500 PM EDT WED MAY 04 2016

Note: "FAIR" indicates few or no clouds below 12,000 feet
with no significant weather and/or obstructions to visibility.
 TC=TEMPERATURE CELSIUS

 * =Non NWS site. Station does not report precipitation (e.g. rain,
    snow, etc.), thunder, or fog.

DCZ001-MDZ009-015-VAZ040>042-051-053>054-042200-
WASHINGTON METRO

CITY           SKY/WX    TMP DP  RH WIND       PRES   REMARKS
WASHINGTON NAT CLOUDY    60  53  77 E9        29.65S
DULLES         CLOUDY    60  52  74 E6        29.64S
ANDREWS AFB    CLOUDY    57  52  84 E8        29.63F
FT BELVOIR     CLOUDY    61  54  77 VRB1      29.64S
QUANTICO       CLOUDY    64  55  72 E9        29.63F
COLLEGE PARK*  CLOUDY    55  50  82 NE3       29.65S
LEESBURG*      CLOUDY    63  55  77 E8        29.64S
MANASSAS*      CLOUDY    61  54  77 E6        29.63F
GAITHERSBURG*  CLOUDY    55  48  76 E5        29.69R

$$

MDZ006>007-011-014-042200-
BALTIMORE METRO

CITY           SKY/WX    TMP DP  RH WIND       PRES   REMARKS
BWI AIRPORT    CLOUDY    55  51  86 E7        29.65F
MD SCIENCE CTR   N/A     56  50  80 MISG      29.66F
MARTIN STATE   CLOUDY    55  54  94 NE3       29.68F
ANNAPOLIS      CLOUDY    56  52  86 NE8       29.66S
FORT MEADE*    CLOUDY    55  50  82 E7        29.68S

$$

MDZ012-015-019>023-042200-
MARYLAND EASTERN SHORE

CITY           SKY/WX    TMP DP  RH WIND       PRES   REMARKS
OCEAN CITY     CLOUDY    52  51  97 NE10      29.65F FOG
SALISBURY      CLOUDY    54  52  93 NE10      29.65S FOG
CAMBRIDGE*       N/A     54  52  94 N7        29.65S
EASTON*        CLOUDY   N/A N/A N/A NE8       29.69F HAZE

$$

MDZ017>025-042200-
SOUTHERN MARYLAND

CITY           SKY/WX    TMP DP  RH WIND       PRES   REMARKS
PATUXENT RIVER CLOUDY    56  52  86 N10       29.65S
ST INIGOES     CLOUDY    57  54  89 VRB5      29.63F
LEONARDTOWN*   CLOUDY    55  52  88 N6        29.66S

$$

MDZ003>005-042200-
NORTH CENTRAL MARYLAND

CITY           SKY/WX    TMP DP  RH WIND       PRES   REMARKS
FREDERICK*     CLOUDY    57  55  94 CALM      29.68S
HAGERSTOWN APT PTSUNNY   59  51  75 E12       29.63R
WESTMINSTER*   CLOUDY    55  36  47 E5        29.65S

$$

MDZ501>502-042200-
WESTERN MARYLAND

CITY           SKY/WX    TMP DP  RH WIND       PRES   REMARKS
OAKLAND*       PTSUNNY   46  43  87 W6        29.66R
CUMBERLAND*    PTSUNNY   64  43  45 S5        29.65S

$$

VAZ025>031-042200-
SHENANDOAH VALLEY

CITY           SKY/WX    TMP DP  RH WIND       PRES   REMARKS
WINCHESTER*    LGT RAIN  55  52  88 CALM        N/A
FRONT ROYAL*   CLOUDY    61  52  72 E5        29.61S
LURAY*         CLOUDY    63  50  63 CALM      29.61S
NEW MARKET*    CLOUDY    63  46  53 CALM      29.60S
STAUNTON*      PTSUNNY   67  41  38 NW3       29.62F
WAYNESBORO*    CLOUDY    65  40  40 CALM      29.61S

$$

WVZ021-048>050-054>055-042200-
EASTERN WEST VIRGINIA PANHANDLE

CITY           SKY/WX    TMP DP  RH WIND       PRES   REMARKS
MARTINSBURG    LGT RAIN  57  50  77 NW9       29.63R
PETERSBURG*    CLOUDY    65  49  56 CALM      29.62F

$$

VAZ036>039-050-042200-
CENTRAL FOOTHILLS

CITY           SKY/WX    TMP DP  RH WIND       PRES   REMARKS
CHARLOTTESVILL CLOUDY    65  50  58 VRB3      29.60F
CULPEPER*      RAIN      57  56  94 N3        29.64S
ORANGE*        LGT RAIN  61  57  88 CALM      29.64F
GORDONSVILLE*  CLOUDY    61  56  82 NE5       29.61S
WARRENTON*     DRIZZLE   59  53  79 N12       29.63R

$$

VAZ055>057-042200-
NORTH AND CENTRAL PIEDMONT

CITY           SKY/WX    TMP DP  RH WIND       PRES   REMARKS
FREDERICKSBRG* FAIR      64  57  80 E5        29.61F
STAFFORD*      CLOUDY    64  55  71 E10       29.66S

$$

NCZ024-NYZ072-PAZ021-071-VAZ022-071-042200-
OTHER REGIONAL OBSERVATIONS

CITY           SKY/WX    TMP DP  RH WIND       PRES   REMARKS
NEW YORK CITY  CLOUDY    50  45  83 VRB5      29.74F
PHILADELPHIA   CLOUDY    53  45  74 NE9       29.70S
PITTSBURGH     LGT RAIN  56  48  74 SE6       29.62F
ROANOKE        FAIR      66  40  38 W9G17     29.63F
RICHMOND       LGT RAIN  57  56  96 NE3       29.61F
RALEIGH        MOSUNNY   72  49  44 VRB5      29.60F

$$

ANZ530>537-042200-
MARINE OBSERVATIONS

STATION/POSITION TIME  TEMP    WIND        PRES
                       AIR SEA DIR/SP/G
                 (UTC) (F)     (DEG/KT/KT) (MB)
THOMAS PT LIGHT  2100   55 58   30/ 11/ 12 1005.4F
BALT KEY BRIDGE  2000   54      50/  6/  7 1004.5F
COVE POINT       2000   54      20/ 10/ 12 1004.6F
LEWISETTA        2000   58 63   30/  4/  6 1003.5F
SOLOMONS ISLAND  2000   56 61   30/  7/  8   N/A
PINEY POINT      2000           70/  4/  6   N/A

$$




USA.gov is the U.S. government's official web portal to all federal, state and local government web resources and services.